Wetterdaten: Sonntag, 18.10.2015
Datum Zeit Temp. A. Feuchte A. Luftdruck Regen Wind Richtung Richtung Sonnenschein ET UV Solar Taupunkt Windchill Windben Empfang
18.10.2015 00:00 6,8 C 88 % 1017,6 hPa 0,0 l/m 1,9 km/h (1 Bft) O-NO 67 0 min 0,000 mm 0,0 UV-I 0 W/m 5,0 C 6,8 C 3,2 km/h (1 Bft) 100,00 %
18.10.2015 00:05 6,7 C 88 % 1017,5 hPa 0,0 l/m 1,2 km/h (1 Bft) O-NO 67 0 min 0,000 mm 0,0 UV-I 0 W/m 4,9 C 6,7 C 3,2 km/h (1 Bft) 99,15 %
18.10.2015 00:10 6,6 C 89 % 1017,5 hPa 0,0 l/m 0,3 km/h (0 Bft) O-NO 67 0 min 0,000 mm 0,0 UV-I 0 W/m 4,9 C 6,6 C 3,2 km/h (1 Bft) 100,00 %
18.10.2015 00:15 6,4 C 90 % 1017,6 hPa 0,0 l/m 0,1 km/h (0 Bft) O-NO 67 0 min 0,000 mm 0,0 UV-I 0 W/m 4,9 C 6,4 C 1,6 km/h (1 Bft) 100,00 %
18.10.2015 00:20 6,4 C 90 % 1017,5 hPa 0,0 l/m 0,0 km/h (0 Bft) O-NO 67 0 min 0,000 mm 0,0 UV-I 0 W/m 4,9 C 6,4 C 1,6 km/h (1 Bft) 100,00 %
18.10.2015 00:25 6,3 C 91 % 1017,5 hPa 0,0 l/m 0,0 km/h (0 Bft) O-NO 67 0 min 0,000 mm 0,0 UV-I 0 W/m 4,9 C 6,3 C 1,6 km/h (1 Bft) 99,17 %
18.10.2015 00:30 6,2 C 92 % 1017,4 hPa 0,0 l/m 0,0 km/h (0 Bft) O-NO 67 0 min 0,000 mm 0,0 UV-I 0 W/m 5,0 C 6,2 C 0,0 km/h (0 Bft) 100,00 %
18.10.2015 00:35 6,2 C 92 % 1017,3 hPa 0,0 l/m 0,3 km/h (0 Bft) O-NO 67 0 min 0,000 mm 0,0 UV-I 0 W/m 5,0 C 6,2 C 1,6 km/h (1 Bft) 98,29 %
18.10.2015 00:40 6,2 C 92 % 1017,2 hPa 0,0 l/m 0,4 km/h (0 Bft) O-NO 67 0 min 0,000 mm 0,0 UV-I 0 W/m 5,0 C 6,2 C 1,6 km/h (1 Bft) 100,00 %
18.10.2015 00:45 6,1 C 92 % 1017,1 hPa 0,0 l/m 0,0 km/h (0 Bft) O-NO 67 0 min 0,000 mm 0,0 UV-I 0 W/m 4,9 C 6,1 C 0,0 km/h (0 Bft) 99,15 %
18.10.2015 00:50 6,1 C 92 % 1017,1 hPa 0,0 l/m 0,2 km/h (0 Bft) O-NO 67 0 min 0,000 mm 0,0 UV-I 0 W/m 4,9 C 6,1 C 1,6 km/h (1 Bft) 99,17 %
18.10.2015 00:55 6,0 C 92 % 1017,1 hPa 0,0 l/m 0,0 km/h (0 Bft) O-NO 67 0 min 0,000 mm 0,0 UV-I 0 W/m 4,8 C 6,0 C 1,6 km/h (1 Bft) 100,00 %
18.10.2015 01:00 5,9 C 92 % 1017,1 hPa 0,0 l/m 0,0 km/h (0 Bft) O-NO 67 0 min 0,000 mm 0,0 UV-I 0 W/m 4,7 C 5,9 C 0,0 km/h (0 Bft) 100,00 %
18.10.2015 01:05 5,8 C 92 % 1017,1 hPa 0,0 l/m 0,0 km/h (0 Bft) O-NO 67 0 min 0,000 mm 0,0 UV-I 0 W/m 4,6 C 5,8 C 0,0 km/h (0 Bft) 100,00 %
18.10.2015 01:10 5,7 C 93 % 1017,1 hPa 0,0 l/m 0,0 km/h (0 Bft) O-NO 67 0 min 0,000 mm 0,0 UV-I 0 W/m 4,7 C 5,7 C 0,0 km/h (0 Bft) 99,15 %
18.10.2015 01:15 5,5 C 93 % 1017,1 hPa 0,0 l/m 0,0 km/h (0 Bft) O-NO 67 0 min 0,000 mm 0,0 UV-I 0 W/m 4,5 C 5,5 C 0,0 km/h (0 Bft) 99,17 %
18.10.2015 01:20 5,4 C 94 % 1017,2 hPa 0,0 l/m 0,0 km/h (0 Bft) O-NO 67 0 min 0,000 mm 0,0 UV-I 0 W/m 4,5 C 5,4 C 0,0 km/h (0 Bft) 100,00 %
18.10.2015 01:25 5,3 C 94 % 1017,2 hPa 0,0 l/m 0,0 km/h (0 Bft) O-NO 67 0 min 0,000 mm 0,0 UV-I 0 W/m 4,4 C 5,3 C 0,0 km/h (0 Bft) 100,00 %
18.10.2015 01:30 5,1 C 94 % 1017,3 hPa 0,0 l/m 0,0 km/h (0 Bft) O-NO 67 0 min 0,000 mm 0,0 UV-I 0 W/m 4,2 C 5,1 C 0,0 km/h (0 Bft) 99,17 %
18.10.2015 01:35 5,1 C 94 % 1017,1 hPa 0,0 l/m 0,1 km/h (0 Bft) O-NO 67 0 min 0,000 mm 0,0 UV-I 0 W/m 4,2 C 5,1 C 1,6 km/h (1 Bft) 99,11 %
18.10.2015 01:40 5,1 C 94 % 1017,0 hPa 0,0 l/m 0,2 km/h (0 Bft) O-NO 67 0 min 0,000 mm 0,0 UV-I 0 W/m 4,2 C 5,1 C 1,6 km/h (1 Bft) 100,00 %
18.10.2015 01:45 5,2 C 94 % 1017,0 hPa 0,0 l/m 0,9 km/h (0 Bft) O-NO 69 0 min 0,000 mm 0,0 UV-I 0 W/m 4,3 C 5,2 C 3,2 km/h (1 Bft) 100,00 %
18.10.2015 01:50 5,1 C 94 % 1017,1 hPa 0,0 l/m 0,2 km/h (0 Bft) O-NO 69 0 min 0,000 mm 0,0 UV-I 0 W/m 4,2 C 5,1 C 1,6 km/h (1 Bft) 99,17 %
18.10.2015 01:55 4,9 C 94 % 1017,2 hPa 0,0 l/m 0,0 km/h (0 Bft) O-NO 69 0 min 0,000 mm 0,0 UV-I 0 W/m 4,0 C 4,9 C 0,0 km/h (0 Bft) 100,00 %
18.10.2015 02:00 4,9 C 94 % 1017,1 hPa 0,0 l/m 0,0 km/h (0 Bft) O-NO 69 0 min 0,000 mm 0,0 UV-I 0 W/m 4,0 C 4,9 C 0,0 km/h (0 Bft) 99,21 %
18.10.2015 02:05 4,8 C 94 % 1017,2 hPa 0,0 l/m 0,0 km/h (0 Bft) O-NO 69 0 min 0,000 mm 0,0 UV-I 0 W/m 3,9 C 4,8 C 1,6 km/h (1 Bft) 100,00 %
18.10.2015 02:10 4,5 C 95 % 1017,2 hPa 0,0 l/m 0,0 km/h (0 Bft) O-NO 69 0 min 0,000 mm 0,0 UV-I 0 W/m 3,8 C 4,5 C 0,0 km/h (0 Bft) 100,00 %
18.10.2015 02:15 4,7 C 96 % 1016,9 hPa 0,0 l/m 0,9 km/h (0 Bft) O-NO 69 0 min 0,000 mm 0,0 UV-I 0 W/m 4,1 C 4,7 C 3,2 km/h (1 Bft) 100,00 %
18.10.2015 02:20 4,7 C 95 % 1017,1 hPa 0,0 l/m 0,0 km/h (0 Bft) O-NO 69 0 min 0,000 mm 0,0 UV-I 0 W/m 4,0 C 4,7 C 0,0 km/h (0 Bft) 99,21 %
18.10.2015 02:25 4,6 C 95 % 1017,2 hPa 0,0 l/m 0,6 km/h (0 Bft) NO 35 0 min 0,000 mm 0,0 UV-I 0 W/m 3,9 C 4,6 C 1,6 km/h (1 Bft) 99,05 %
18.10.2015 02:30 4,5 C 96 % 1017,2 hPa 0,0 l/m 0,0 km/h (0 Bft) NO 35 0 min 0,000 mm 0,0 UV-I 0 W/m 3,9 C 4,5 C 0,0 km/h (0 Bft) 100,00 %
18.10.2015 02:35 4,2 C 95 % 1017,1 hPa 0,0 l/m 0,1 km/h (0 Bft) NO 35 0 min 0,000 mm 0,0 UV-I 0 W/m 3,5 C 4,2 C 1,6 km/h (1 Bft) 99,11 %
18.10.2015 02:40 4,1 C 95 % 1017,2 hPa 0,0 l/m 0,0 km/h (0 Bft) NO 35 0 min 0,000 mm 0,0 UV-I 0 W/m 3,4 C 4,1 C 0,0 km/h (0 Bft) 100,00 %
18.10.2015 02:45 4,1 C 95 % 1017,2 hPa 0,0 l/m 0,0 km/h (0 Bft) NO 35 0 min 0,000 mm 0,0 UV-I 0 W/m 3,4 C 4,1 C 0,0 km/h (0 Bft) 97,32 %
18.10.2015 02:50 4,1 C 96 % 1017,3 hPa 0,0 l/m 0,2 km/h (0 Bft) NO 35 0 min 0,000 mm 0,0 UV-I 0 W/m 3,5 C 4,1 C 1,6 km/h (1 Bft) 96,75 %
18.10.2015 02:55 4,0 C 96 % 1017,3 hPa 0,0 l/m 0,1 km/h (0 Bft) NO 35 0 min 0,000 mm 0,0 UV-I 0 W/m 3,4 C 4,0 C 1,6 km/h (1 Bft) 100,00 %
18.10.2015 03:00 4,0 C 96 % 1017,1 hPa 0,0 l/m 0,0 km/h (0 Bft) NO 35 0 min 0,000 mm 0,0 UV-I 0 W/m 3,4 C 4,0 C 0,0 km/h (0 Bft) 100,00 %
18.10.2015 03:05 4,1 C 96 % 1017,1 hPa 0,0 l/m 0,0 km/h (0 Bft) NO 35 0 min 0,000 mm 0,0 UV-I 0 W/m 3,5 C 4,1 C 0,0 km/h (0 Bft) 100,00 %
18.10.2015 03:10 4,2 C 96 % 1017,0 hPa 0,0 l/m 0,0 km/h (0 Bft) NO 35 0 min 0,000 mm 0,0 UV-I 0 W/m 3,6 C 4,2 C 0,0 km/h (0 Bft) 100,00 %
18.10.2015 03:15 4,3 C 96 % 1016,9 hPa 0,0 l/m 0,4 km/h (0 Bft) NO 35 0 min 0,000 mm 0,0 UV-I 0 W/m 3,7 C 4,3 C 1,6 km/h (1 Bft) 98,35 %
18.10.2015 03:20 4,5 C 96 % 1016,8 hPa 0,0 l/m 0,8 km/h (0 Bft) NO 41 0 min 0,000 mm 0,0 UV-I 0 W/m 3,9 C 4,5 C 3,2 km/h (1 Bft) 99,12 %
18.10.2015 03:25 4,5 C 96 % 1016,8 hPa 0,0 l/m 0,1 km/h (0 Bft) NO 41 0 min 0,000 mm 0,0 UV-I 0 W/m 3,9 C 4,5 C 1,6 km/h (1 Bft) 100,00 %
18.10.2015 03:30 4,5 C 96 % 1016,8 hPa 0,0 l/m 0,0 km/h (0 Bft) NO 41 0 min 0,000 mm 0,0 UV-I 0 W/m 3,9 C 4,5 C 0,0 km/h (0 Bft) 100,00 %
18.10.2015 03:35 4,4 C 96 % 1016,8 hPa 0,0 l/m 0,1 km/h (0 Bft) NO 41 0 min 0,000 mm 0,0 UV-I 0 W/m 3,8 C 4,4 C 1,6 km/h (1 Bft) 98,37 %
18.10.2015 03:40 4,5 C 96 % 1016,8 hPa 0,0 l/m 0,0 km/h (0 Bft) NO 41 0 min 0,000 mm 0,0 UV-I 0 W/m 3,9 C 4,5 C 0,0 km/h (0 Bft) 99,13 %
18.10.2015 03:45 4,4 C 96 % 1016,8 hPa 0,0 l/m 0,1 km/h (0 Bft) NO 40 0 min 0,000 mm 0,0 UV-I 0 W/m 3,8 C 4,4 C 1,6 km/h (1 Bft) 99,12 %
18.10.2015 03:50 4,3 C 95 % 1016,6 hPa 0,0 l/m 0,0 km/h (0 Bft) NO 40 0 min 0,000 mm 0,0 UV-I 0 W/m 3,6 C 4,3 C 0,0 km/h (0 Bft) 97,58 %
18.10.2015 03:55 4,2 C 96 % 1016,6 hPa 0,0 l/m 0,0 km/h (0 Bft) NO 40 0 min 0,000 mm 0,0 UV-I 0 W/m 3,6 C 4,2 C 0,0 km/h (0 Bft) 100,00 %
18.10.2015 04:00 4,2 C 96 % 1016,6 hPa 0,0 l/m 0,0 km/h (0 Bft) NO 40 0 min 0,000 mm 0,0 UV-I 0 W/m 3,6 C 4,2 C 0,0 km/h (0 Bft) 100,00 %
18.10.2015 04:05 4,3 C 96 % 1016,6 hPa 0,0 l/m 0,0 km/h (0 Bft) NO 40 0 min 0,000 mm 0,0 UV-I 0 W/m 3,7 C 4,3 C 0,0 km/h (0 Bft) 99,01 %
18.10.2015 04:10 4,2 C 96 % 1016,4 hPa 0,0 l/m 0,0 km/h (0 Bft) NO 41 0 min 0,000 mm 0,0 UV-I 0 W/m 3,6 C 4,2 C 0,0 km/h (0 Bft) 100,00 %
18.10.2015 04:15 4,1 C 96 % 1016,4 hPa 0,0 l/m 0,0 km/h (0 Bft) NO 40 0 min 0,000 mm 0,0 UV-I 0 W/m 3,5 C 4,1 C 0,0 km/h (0 Bft) 98,37 %
18.10.2015 04:20 4,2 C 96 % 1016,5 hPa 0,0 l/m 0,0 km/h (0 Bft) NO 40 0 min 0,000 mm 0,0 UV-I 0 W/m 3,6 C 4,2 C 0,0 km/h (0 Bft) 99,17 %
18.10.2015 04:25 4,2 C 96 % 1016,5 hPa 0,0 l/m 0,0 km/h (0 Bft) NO 40 0 min 0,000 mm 0,0 UV-I 0 W/m 3,6 C 4,2 C 0,0 km/h (0 Bft) 100,00 %
18.10.2015 04:30 4,2 C 96 % 1016,5 hPa 0,0 l/m 0,0 km/h (0 Bft) NO 40 0 min 0,000 mm 0,0 UV-I 0 W/m 3,6 C 4,2 C 0,0 km/h (0 Bft) 100,00 %
18.10.2015 04:35 4,1 C 96 % 1016,6 hPa 0,0 l/m 0,0 km/h (0 Bft) NO 40 0 min 0,000 mm 0,0 UV-I 0 W/m 3,5 C 4,1 C 0,0 km/h (0 Bft) 99,08 %
18.10.2015 04:40 4,1 C 96 % 1016,6 hPa 0,0 l/m 0,0 km/h (0 Bft) NO 40 0 min 0,000 mm 0,0 UV-I 0 W/m 3,5 C 4,1 C 0,0 km/h (0 Bft) 99,21 %
18.10.2015 04:45 4,2 C 96 % 1016,6 hPa 0,0 l/m 0,0 km/h (0 Bft) NO 40 0 min 0,000 mm 0,0 UV-I 0 W/m 3,6 C 4,2 C 0,0 km/h (0 Bft) 99,08 %
18.10.2015 04:50 4,1 C 96 % 1016,7 hPa 0,0 l/m 0,0 km/h (0 Bft) NO 40 0 min 0,000 mm 0,0 UV-I 0 W/m 3,5 C 4,1 C 0,0 km/h (0 Bft) 99,17 %
18.10.2015 04:55 4,1 C 96 % 1016,7 hPa 0,0 l/m 0,0 km/h (0 Bft) NO 40 0 min 0,000 mm 0,0 UV-I 0 W/m 3,5 C 4,1 C 0,0 km/h (0 Bft) 100,00 %
18.10.2015 05:00 4,1 C 96 % 1016,6 hPa 0,0 l/m 0,4 km/h (0 Bft) NO 41 0 min 0,000 mm 0,0 UV-I 0 W/m 3,5 C 4,1 C 1,6 km/h (1 Bft) 100,00 %
18.10.2015 05:05 4,0 C 96 % 1016,7 hPa 0,0 l/m 0,0 km/h (0 Bft) NO 41 0 min 0,000 mm 0,0 UV-I 0 W/m 3,4 C 4,0 C 0,0 km/h (0 Bft) 99,17 %
18.10.2015 05:10 4,0 C 96 % 1016,8 hPa 0,0 l/m 0,0 km/h (0 Bft) NO 41 0 min 0,000 mm 0,0 UV-I 0 W/m 3,4 C 4,0 C 0,0 km/h (0 Bft) 99,13 %
18.10.2015 05:15 4,0 C 96 % 1016,9 hPa 0,0 l/m 0,7 km/h (0 Bft) N-NO 31 0 min 0,000 mm 0,0 UV-I 0 W/m 3,4 C 4,0 C 1,6 km/h (1 Bft) 99,15 %
18.10.2015 05:20 3,9 C 96 % 1017,0 hPa 0,0 l/m 0,7 km/h (0 Bft) NW 325 0 min 0,000 mm 0,0 UV-I 0 W/m 3,3 C 3,9 C 1,6 km/h (1 Bft) 98,37 %
18.10.2015 05:25 3,8 C 96 % 1016,9 hPa 0,0 l/m 0,8 km/h (0 Bft) O-NO 65 0 min 0,000 mm 0,0 UV-I 0 W/m 3,2 C 3,8 C 1,6 km/h (1 Bft) 99,08 %
18.10.2015 05:30 3,8 C 97 % 1017,0 hPa 0,0 l/m 0,0 km/h (0 Bft) O-NO 65 0 min 0,000 mm 0,0 UV-I 0 W/m 3,4 C 3,8 C 0,0 km/h (0 Bft) 98,31 %
18.10.2015 05:35 4,0 C 97 % 1017,1 hPa 0,0 l/m 0,0 km/h (0 Bft) O-NO 65 0 min 0,000 mm 0,0 UV-I 0 W/m 3,6 C 4,0 C 0,0 km/h (0 Bft) 99,12 %
18.10.2015 05:40 4,1 C 97 % 1017,1 hPa 0,0 l/m 0,0 km/h (0 Bft) O-NO 65 0 min 0,000 mm 0,0 UV-I 0 W/m 3,7 C 4,1 C 0,0 km/h (0 Bft) 99,15 %
18.10.2015 05:45 4,1 C 97 % 1017,1 hPa 0,0 l/m 0,3 km/h (0 Bft) O-NO 65 0 min 0,000 mm 0,0 UV-I 0 W/m 3,7 C 4,1 C 1,6 km/h (1 Bft) 100,00 %
18.10.2015 05:50 4,0 C 96 % 1017,1 hPa 0,0 l/m 0,7 km/h (0 Bft) O-NO 65 0 min 0,000 mm 0,0 UV-I 0 W/m 3,4 C 4,0 C 1,6 km/h (1 Bft) 100,00 %
18.10.2015 05:55 4,1 C 97 % 1017,2 hPa 0,0 l/m 0,0 km/h (0 Bft) O-NO 65 0 min 0,000 mm 0,0 UV-I 0 W/m 3,7 C 4,1 C 0,0 km/h (0 Bft) 99,17 %
18.10.2015 06:00 4,1 C 97 % 1017,2 hPa 0,0 l/m 0,2 km/h (0 Bft) O-NO 65 0 min 0,000 mm 0,0 UV-I 0 W/m 3,7 C 4,1 C 1,6 km/h (1 Bft) 99,17 %
18.10.2015 06:05 4,2 C 97 % 1017,2 hPa 0,0 l/m 0,0 km/h (0 Bft) O-NO 65 0 min 0,000 mm 0,0 UV-I 0 W/m 3,8 C 4,2 C 0,0 km/h (0 Bft) 99,15 %
18.10.2015 06:10 4,2 C 96 % 1017,2 hPa 0,0 l/m 0,0 km/h (0 Bft) O-NO 65 0 min 0,000 mm 0,0 UV-I 0 W/m 3,6 C 4,2 C 0,0 km/h (0 Bft) 99,17 %
18.10.2015 06:15 4,2 C 96 % 1017,2 hPa 0,0 l/m 0,7 km/h (0 Bft) O-NO 65 0 min 0,000 mm 0,0 UV-I 0 W/m 3,6 C 4,2 C 1,6 km/h (1 Bft) 100,00 %
18.10.2015 06:20 4,3 C 96 % 1017,2 hPa 0,0 l/m 0,2 km/h (0 Bft) O-NO 65 0 min 0,000 mm 0,0 UV-I 0 W/m 3,7 C 4,3 C 1,6 km/h (1 Bft) 99,08 %
18.10.2015 06:25 4,3 C 96 % 1017,2 hPa 0,0 l/m 0,0 km/h (0 Bft) O-NO 65 0 min 0,000 mm 0,0 UV-I 0 W/m 3,7 C 4,3 C 0,0 km/h (0 Bft) 100,00 %
18.10.2015 06:30 4,4 C 97 % 1017,2 hPa 0,0 l/m 0,4 km/h (0 Bft) O-NO 65 0 min 0,000 mm 0,0 UV-I 0 W/m 4,0 C 4,4 C 1,6 km/h (1 Bft) 99,22 %
18.10.2015 06:35 4,3 C 96 % 1017,1 hPa 0,0 l/m 0,1 km/h (0 Bft) O-NO 65 0 min 0,000 mm 0,0 UV-I 0 W/m 3,7 C 4,3 C 1,6 km/h (1 Bft) 100,00 %
18.10.2015 06:40 4,4 C 96 % 1017,1 hPa 0,0 l/m 0,5 km/h (0 Bft) O-NO 65 0 min 0,000 mm 0,0 UV-I 0 W/m 3,8 C 4,4 C 1,6 km/h (1 Bft) 100,00 %
18.10.2015 06:45 4,4 C 96 % 1017,2 hPa 0,0 l/m 0,4 km/h (0 Bft) O-NO 65 0 min 0,000 mm 0,0 UV-I 0 W/m 3,8 C 4,4 C 1,6 km/h (1 Bft) 100,00 %
18.10.2015 06:50 4,5 C 96 % 1017,2 hPa 0,0 l/m 0,0 km/h (0 Bft) O-NO 65 0 min 0,000 mm 0,0 UV-I 0 W/m 3,9 C 4,5 C 0,0 km/h (0 Bft) 99,15 %
18.10.2015 06:55 4,5 C 96 % 1017,1 hPa 0,0 l/m 0,0 km/h (0 Bft) O-NO 65 0 min 0,000 mm 0,0 UV-I 0 W/m 3,9 C 4,5 C 0,0 km/h (0 Bft) 100,00 %
18.10.2015 07:00 4,5 C 96 % 1017,2 hPa 0,0 l/m 0,2 km/h (0 Bft) O-NO 65 0 min 0,000 mm 0,0 UV-I 0 W/m 3,9 C 4,5 C 1,6 km/h (1 Bft) 99,08 %
18.10.2015 07:05 4,4 C 96 % 1017,2 hPa 0,0 l/m 1,1 km/h (1 Bft) S 175 0 min 0,000 mm 0,0 UV-I 0 W/m 3,8 C 4,4 C 3,2 km/h (1 Bft) 100,00 %
18.10.2015 07:10 4,4 C 96 % 1017,2 hPa 0,0 l/m 0,3 km/h (0 Bft) S 175 0 min 0,000 mm 0,0 UV-I 0 W/m 3,8 C 4,4 C 1,6 km/h (1 Bft) 99,17 %
18.10.2015 07:15 4,5 C 97 % 1017,1 hPa 0,0 l/m 0,4 km/h (0 Bft) S 175 0 min 0,000 mm 0,0 UV-I 0 W/m 4,1 C 4,5 C 1,6 km/h (1 Bft) 98,21 %
18.10.2015 07:20 4,6 C 96 % 1017,1 hPa 0,0 l/m 1,0 km/h (0 Bft) S-SO 163 0 min 0,000 mm 0,0 UV-I 0 W/m 4,0 C 4,6 C 3,2 km/h (1 Bft) 100,00 %
18.10.2015 07:25 4,6 C 96 % 1017,0 hPa 0,0 l/m 0,0 km/h (0 Bft) S-SO 163 0 min 0,000 mm 0,0 UV-I 2 W/m 4,0 C 4,6 C 1,6 km/h (1 Bft) 98,35 %
18.10.2015 07:30 4,7 C 96 % 1017,1 hPa 0,0 l/m 0,1 km/h (0 Bft) S-SO 163 0 min 0,000 mm 0,0 UV-I 5 W/m 4,1 C 4,7 C 1,6 km/h (1 Bft) 97,32 %
18.10.2015 07:35 4,7 C 96 % 1017,2 hPa 0,0 l/m 0,1 km/h (0 Bft) S-SO 163 0 min 0,000 mm 0,0 UV-I 6 W/m 4,1 C 4,7 C 1,6 km/h (1 Bft) 100,00 %
18.10.2015 07:40 4,8 C 96 % 1017,1 hPa 0,0 l/m 0,0 km/h (0 Bft) S-SO 163 0 min 0,000 mm 0,0 UV-I 7 W/m 4,2 C 4,8 C 0,0 km/h (0 Bft) 99,15 %
18.10.2015 07:45 4,8 C 96 % 1017,0 hPa 0,0 l/m 0,0 km/h (0 Bft) S-SO 163 0 min 0,000 mm 0,0 UV-I 7 W/m 4,2 C 4,8 C 1,6 km/h (1 Bft) 100,00 %
18.10.2015 07:50 4,9 C 96 % 1017,0 hPa 0,0 l/m 0,0 km/h (0 Bft) S-SO 163 0 min 0,000 mm 0,0 UV-I 10 W/m 4,3 C 4,9 C 0,0 km/h (0 Bft) 99,22 %
18.10.2015 07:55 5,0 C 96 % 1017,1 hPa 0,0 l/m 0,0 km/h (0 Bft) S-SO 163 0 min 0,000 mm 0,0 UV-I 12 W/m 4,4 C 5,0 C 0,0 km/h (0 Bft) 98,17 %
18.10.2015 08:00 5,1 C 96 % 1017,1 hPa 0,0 l/m 0,0 km/h (0 Bft) S-SO 163 0 min 0,000 mm 0,0 UV-I 14 W/m 4,5 C 5,1 C 0,0 km/h (0 Bft) 99,19 %
18.10.2015 08:05 5,1 C 96 % 1017,1 hPa 0,0 l/m 0,1 km/h (0 Bft) S-SO 163 0 min 0,000 mm 0,0 UV-I 18 W/m 4,5 C 5,1 C 1,6 km/h (1 Bft) 100,00 %
18.10.2015 08:10 5,1 C 96 % 1017,2 hPa 0,0 l/m 0,0 km/h (0 Bft) S-SO 163 0 min 0,000 mm 0,0 UV-I 20 W/m 4,5 C 5,1 C 0,0 km/h (0 Bft) 98,11 %
18.10.2015 08:15 5,1 C 96 % 1017,2 hPa 0,0 l/m 0,0 km/h (0 Bft) S-SO 163 0 min 0,000 mm 0,0 UV-I 23 W/m 4,5 C 5,1 C 0,0 km/h (0 Bft) 100,00 %
18.10.2015 08:20 5,2 C 96 % 1017,2 hPa 0,0 l/m 0,0 km/h (0 Bft) S-SO 163 0 min 0,000 mm 0,0 UV-I 27 W/m 4,6 C 5,2 C 1,6 km/h (1 Bft) 100,00 %
18.10.2015 08:25 5,3 C 96 % 1017,3 hPa 0,0 l/m 0,9 km/h (0 Bft) S-SW 200 0 min 0,000 mm 0,0 UV-I 31 W/m 4,7 C 5,3 C 4,8 km/h (1 Bft) 97,25 %
18.10.2015 08:30 5,3 C 96 % 1017,4 hPa 0,0 l/m 0,6 km/h (0 Bft) S-SW 200 0 min 0,000 mm 0,0 UV-I 34 W/m 4,7 C 5,3 C 3,2 km/h (1 Bft) 100,00 %
18.10.2015 08:35 5,4 C 95 % 1017,7 hPa 0,0 l/m 2,4 km/h (1 Bft) W-SW 238 0 min 0,000 mm 0,0 UV-I 36 W/m 4,7 C 5,4 C 6,4 km/h (2 Bft) 99,29 %
18.10.2015 08:40 5,4 C 95 % 1017,5 hPa 0,0 l/m 1,3 km/h (1 Bft) S-SW 204 0 min 0,000 mm 0,0 UV-I 43 W/m 4,7 C 5,4 C 4,8 km/h (1 Bft) 99,11 %
18.10.2015 08:45 5,4 C 96 % 1017,3 hPa 0,0 l/m 0,9 km/h (0 Bft) O-SO 119 0 min 0,000 mm 0,0 UV-I 50 W/m 4,8 C 5,4 C 3,2 km/h (1 Bft) 99,12 %
18.10.2015 08:50 5,4 C 96 % 1017,3 hPa 0,0 l/m 1,9 km/h (1 Bft) SO 136 0 min 0,000 mm 0,0 UV-I 53 W/m 4,8 C 5,4 C 3,2 km/h (1 Bft) 99,19 %
18.10.2015 08:55 5,5 C 96 % 1017,3 hPa 0,0 l/m 1,1 km/h (1 Bft) S-SO 149 0 min 0,000 mm 0,0 UV-I 54 W/m 4,9 C 5,5 C 3,2 km/h (1 Bft) 100,00 %
18.10.2015 09:00 5,5 C 95 % 1017,5 hPa 0,0 l/m 1,2 km/h (1 Bft) SO 125 0 min 0,025 mm 0,0 UV-I 56 W/m 4,8 C 5,5 C 3,2 km/h (1 Bft) 98,39 %
18.10.2015 09:05 5,5 C 95 % 1017,6 hPa 0,0 l/m 2,5 km/h (1 Bft) S-SW 199 0 min 0,000 mm 0,0 UV-I 72 W/m 4,8 C 5,5 C 6,4 km/h (2 Bft) 100,00 %
18.10.2015 09:10 5,6 C 96 % 1017,7 hPa 0,0 l/m 2,4 km/h (1 Bft) S 188 0 min 0,000 mm 0,0 UV-I 87 W/m 5,0 C 5,6 C 4,8 km/h (1 Bft) 100,00 %
18.10.2015 09:15 5,7 C 95 % 1018,0 hPa 0,0 l/m 3,7 km/h (1 Bft) S-SW 209 0 min 0,000 mm 0,0 UV-I 69 W/m 5,0 C 5,7 C 8,0 km/h (2 Bft) 99,19 %
18.10.2015 09:20 5,7 C 95 % 1017,6 hPa 0,0 l/m 2,5 km/h (1 Bft) S 174 0 min 0,000 mm 0,0 UV-I 65 W/m 5,0 C 5,7 C 6,4 km/h (2 Bft) 99,11 %
18.10.2015 09:25 5,5 C 95 % 1017,5 hPa 0,0 l/m 1,2 km/h (1 Bft) O-SO 118 0 min 0,000 mm 0,0 UV-I 52 W/m 4,8 C 5,5 C 3,2 km/h (1 Bft) 99,21 %
18.10.2015 09:30 5,4 C 95 % 1017,7 hPa 0,0 l/m 1,9 km/h (1 Bft) S-SW 195 0 min 0,000 mm 0,0 UV-I 32 W/m 4,7 C 5,4 C 4,8 km/h (1 Bft) 99,11 %
18.10.2015 09:35 5,3 C 96 % 1017,6 hPa 0,0 l/m 1,2 km/h (1 Bft) S-SW 195 0 min 0,000 mm 0,0 UV-I 34 W/m 4,7 C 5,3 C 3,2 km/h (1 Bft) 99,17 %
18.10.2015 09:40 5,4 C 96 % 1017,8 hPa 0,0 l/m 0,8 km/h (0 Bft) S-SW 196 0 min 0,000 mm 0,0 UV-I 39 W/m 4,8 C 5,4 C 3,2 km/h (1 Bft) 99,15 %
18.10.2015 09:45 5,5 C 96 % 1017,9 hPa 0,0 l/m 2,0 km/h (1 Bft) W 259 0 min 0,000 mm 0,0 UV-I 31 W/m 4,9 C 5,5 C 4,8 km/h (1 Bft) 100,00 %
18.10.2015 09:50 5,4 C 96 % 1017,9 hPa 0,0 l/m 1,9 km/h (1 Bft) W 265 0 min 0,000 mm 0,0 UV-I 36 W/m 4,8 C 5,4 C 4,8 km/h (1 Bft) 100,00 %
18.10.2015 09:55 5,4 C 95 % 1018,0 hPa 0,0 l/m 0,9 km/h (0 Bft) S 188 0 min 0,000 mm 0,0 UV-I 57 W/m 4,7 C 5,4 C 3,2 km/h (1 Bft) 99,13 %
18.10.2015 10:00 5,4 C 95 % 1017,9 hPa 0,0 l/m 0,1 km/h (0 Bft) S 188 0 min 0,026 mm 0,0 UV-I 48 W/m 4,7 C 5,4 C 1,6 km/h (1 Bft) 100,00 %
18.10.2015 10:05 5,6 C 96 % 1017,9 hPa 0,0 l/m 0,9 km/h (0 Bft) S 175 0 min 0,000 mm 0,0 UV-I 55 W/m 5,0 C 5,6 C 3,2 km/h (1 Bft) 97,62 %
18.10.2015 10:10 5,7 C 96 % 1017,9 hPa 0,0 l/m 1,5 km/h (1 Bft) O-SO 118 0 min 0,000 mm 0,0 UV-I 69 W/m 5,1 C 5,7 C 3,2 km/h (1 Bft) 100,00 %
18.10.2015 10:15 5,7 C 96 % 1017,8 hPa 0,0 l/m 1,1 km/h (1 Bft) SW 236 0 min 0,000 mm 0,0 UV-I 79 W/m 5,1 C 5,7 C 3,2 km/h (1 Bft) 99,11 %
18.10.2015 10:20 5,7 C 96 % 1017,7 hPa 0,0 l/m 0,1 km/h (0 Bft) SW 236 0 min 0,000 mm 0,0 UV-I 74 W/m 5,1 C 5,7 C 1,6 km/h (1 Bft) 98,37 %
18.10.2015 10:25 5,9 C 96 % 1017,8 hPa 0,0 l/m 0,3 km/h (0 Bft) S-SW 205 0 min 0,000 mm 0,2 UV-I 82 W/m 5,3 C 5,9 C 1,6 km/h (1 Bft) 100,00 %
18.10.2015 10:30 5,8 C 95 % 1017,9 hPa 0,0 l/m 1,1 km/h (1 Bft) S 169 0 min 0,000 mm 0,6 UV-I 95 W/m 5,1 C 5,8 C 4,8 km/h (1 Bft) 99,06 %
18.10.2015 10:35 5,8 C 95 % 1017,8 hPa 0,0 l/m 0,2 km/h (0 Bft) O-SO 122 0 min 0,000 mm 0,6 UV-I 109 W/m 5,1 C 5,8 C 1,6 km/h (1 Bft) 100,00 %
18.10.2015 10:40 5,9 C 95 % 1017,7 hPa 0,0 l/m 1,6 km/h (1 Bft) SO 143 0 min 0,000 mm 0,7 UV-I 157 W/m 5,2 C 5,9 C 3,2 km/h (1 Bft) 99,17 %
18.10.2015 10:45 6,1 C 95 % 1017,7 hPa 0,0 l/m 1,9 km/h (1 Bft) S 189 0 min 0,000 mm 0,8 UV-I 235 W/m 5,4 C 6,1 C 4,8 km/h (1 Bft) 99,10 %
18.10.2015 10:50 6,1 C 95 % 1017,8 hPa 0,0 l/m 2,9 km/h (1 Bft) S 178 0 min 0,000 mm 0,8 UV-I 215 W/m 5,4 C 6,1 C 6,4 km/h (2 Bft) 97,46 %
18.10.2015 10:55 6,1 C 95 % 1017,8 hPa 0,0 l/m 2,7 km/h (1 Bft) SW 217 0 min 0,000 mm 0,9 UV-I 225 W/m 5,4 C 6,1 C 6,4 km/h (2 Bft) 100,00 %
18.10.2015 11:00 6,2 C 95 % 1017,8 hPa 0,0 l/m 1,9 km/h (1 Bft) S-SW 199 0 min 0,051 mm 0,8 UV-I 186 W/m 5,5 C 6,2 C 6,4 km/h (2 Bft) 100,00 %
18.10.2015 11:05 6,3 C 95 % 1017,8 hPa 0,0 l/m 1,7 km/h (1 Bft) SO 141 0 min 0,000 mm 0,8 UV-I 162 W/m 5,6 C 6,3 C 4,8 km/h (1 Bft) 100,00 %
18.10.2015 11:10 6,3 C 95 % 1017,7 hPa 0,0 l/m 2,4 km/h (1 Bft) W-NW 282 0 min 0,000 mm 0,9 UV-I 224 W/m 5,6 C 6,3 C 4,8 km/h (1 Bft) 100,00 %
18.10.2015 11:15 6,6 C 93 % 1017,6 hPa 0,0 l/m 3,2 km/h (1 Bft) O-SO 111 0 min 0,000 mm 1,1 UV-I 249 W/m 5,6 C 6,6 C 6,4 km/h (2 Bft) 99,26 %
18.10.2015 11:20 6,7 C 93 % 1017,6 hPa 0,0 l/m 2,3 km/h (1 Bft) O 87 5 min 0,000 mm 1,1 UV-I 277 W/m 5,6 C 6,7 C 6,4 km/h (2 Bft) 98,35 %
18.10.2015 11:25 6,7 C 93 % 1017,7 hPa 0,0 l/m 1,4 km/h (1 Bft) O-SO 116 5 min 0,000 mm 1,2 UV-I 311 W/m 5,6 C 6,7 C 4,8 km/h (1 Bft) 100,00 %
18.10.2015 11:30 7,0 C 94 % 1017,8 hPa 0,0 l/m 1,8 km/h (1 Bft) O-SO 115 5 min 0,000 mm 1,1 UV-I 331 W/m 6,1 C 7,0 C 4,8 km/h (1 Bft) 100,00 %
18.10.2015 11:35 7,1 C 93 % 1017,8 hPa 0,0 l/m 2,3 km/h (1 Bft) O-SO 114 5 min 0,000 mm 1,2 UV-I 334 W/m 6,0 C 7,1 C 4,8 km/h (1 Bft) 91,67 %
18.10.2015 11:45 6,9 C 92 % 1017,8 hPa 0,0 l/m 2,1 km/h (1 Bft) W-SW 242 0 min 0,000 mm 1,0 UV-I 181 W/m 5,7 C 6,9 C 4,8 km/h (1 Bft) 99,11 %
18.10.2015 11:50 7,0 C 92 % 1017,7 hPa 0,0 l/m 2,8 km/h (1 Bft) O-SO 105 0 min 0,000 mm 1,2 UV-I 243 W/m 5,8 C 7,0 C 6,4 km/h (2 Bft) 100,00 %
18.10.2015 11:55 7,2 C 92 % 1017,7 hPa 0,0 l/m 0,4 km/h (0 Bft) O-SO 107 0 min 0,000 mm 1,3 UV-I 231 W/m 6,0 C 7,2 C 3,2 km/h (1 Bft) 99,17 %
18.10.2015 12:00 7,2 C 91 % 1017,6 hPa 0,0 l/m 1,1 km/h (1 Bft) N 349 0 min 0,101 mm 1,4 UV-I 213 W/m 5,8 C 7,2 C 3,2 km/h (1 Bft) 100,00 %
18.10.2015 12:05 7,3 C 92 % 1017,6 hPa 0,0 l/m 1,1 km/h (1 Bft) N-NO 26 0 min 0,000 mm 1,4 UV-I 178 W/m 6,1 C 7,3 C 3,2 km/h (1 Bft) 99,21 %
18.10.2015 12:10 7,5 C 89 % 1017,6 hPa 0,0 l/m 1,7 km/h (1 Bft) O 90 0 min 0,000 mm 1,4 UV-I 154 W/m 5,8 C 7,5 C 3,2 km/h (1 Bft) 100,00 %
18.10.2015 12:15 7,8 C 87 % 1017,6 hPa 0,0 l/m 3,0 km/h (1 Bft) NO 51 0 min 0,000 mm 1,7 UV-I 269 W/m 5,8 C 7,8 C 6,4 km/h (2 Bft) 100,00 %
18.10.2015 12:20 8,3 C 87 % 1017,6 hPa 0,0 l/m 3,1 km/h (1 Bft) O-SO 104 5 min 0,000 mm 1,6 UV-I 332 W/m 6,3 C 8,3 C 6,4 km/h (2 Bft) 99,12 %
18.10.2015 12:25 8,3 C 87 % 1017,5 hPa 0,0 l/m 3,5 km/h (1 Bft) O 94 0 min 0,000 mm 1,3 UV-I 243 W/m 6,3 C 8,3 C 8,0 km/h (2 Bft) 99,11 %
18.10.2015 12:30 8,3 C 86 % 1017,5 hPa 0,0 l/m 5,7 km/h (1 Bft) O 95 5 min 0,000 mm 1,4 UV-I 303 W/m 6,1 C 8,3 C 11,3 km/h (2 Bft) 99,11 %
18.10.2015 12:35 8,5 C 86 % 1017,5 hPa 0,0 l/m 3,8 km/h (1 Bft) O-SO 121 0 min 0,000 mm 1,3 UV-I 251 W/m 6,3 C 8,5 C 9,7 km/h (2 Bft) 100,00 %
18.10.2015 12:40 8,5 C 86 % 1017,4 hPa 0,0 l/m 3,4 km/h (1 Bft) O 79 0 min 0,000 mm 1,2 UV-I 230 W/m 6,3 C 8,5 C 9,7 km/h (2 Bft) 100,00 %
18.10.2015 12:45 8,7 C 87 % 1017,3 hPa 0,0 l/m 3,3 km/h (1 Bft) O 99 0 min 0,000 mm 1,3 UV-I 246 W/m 6,7 C 8,7 C 4,8 km/h (1 Bft) 100,00 %
18.10.2015 12:50 8,5 C 85 % 1017,3 hPa 0,0 l/m 1,8 km/h (1 Bft) O-SO 109 0 min 0,000 mm 1,5 UV-I 273 W/m 6,1 C 8,5 C 4,8 km/h (1 Bft) 100,00 %
18.10.2015 12:55 8,8 C 84 % 1017,2 hPa 0,0 l/m 2,8 km/h (1 Bft) O 101 5 min 0,000 mm 1,9 UV-I 421 W/m 6,2 C 8,8 C 6,4 km/h (2 Bft) 100,00 %
18.10.2015 13:00 9,3 C 82 % 1017,1 hPa 0,0 l/m 3,3 km/h (1 Bft) NO 49 5 min 0,127 mm 2,1 UV-I 605 W/m 6,4 C 9,3 C 9,7 km/h (2 Bft) 100,00 %
18.10.2015 13:05 9,5 C 82 % 1017,0 hPa 0,0 l/m 2,3 km/h (1 Bft) O 88 5 min 0,000 mm 2,0 UV-I 514 W/m 6,6 C 9,5 C 4,8 km/h (1 Bft) 99,17 %
18.10.2015 13:10 9,6 C 81 % 1016,8 hPa 0,0 l/m 2,5 km/h (1 Bft) NO 45 5 min 0,000 mm 1,9 UV-I 653 W/m 6,5 C 9,6 C 6,4 km/h (2 Bft) 100,00 %
18.10.2015 13:15 9,4 C 81 % 1016,7 hPa 0,0 l/m 2,7 km/h (1 Bft) O 86 0 min 0,000 mm 1,7 UV-I 261 W/m 6,3 C 9,4 C 4,8 km/h (1 Bft) 100,00 %
18.10.2015 13:20 9,8 C 81 % 1016,6 hPa 0,0 l/m 2,3 km/h (1 Bft) SO 134 5 min 0,000 mm 2,0 UV-I 382 W/m 6,7 C 9,8 C 6,4 km/h (2 Bft) 100,00 %
18.10.2015 13:25 10,0 C 80 % 1016,5 hPa 0,0 l/m 2,6 km/h (1 Bft) N-NO 13 5 min 0,000 mm 2,0 UV-I 481 W/m 6,7 C 10,0 C 6,4 km/h (2 Bft) 99,21 %
18.10.2015 13:30 10,2 C 80 % 1016,5 hPa 0,0 l/m 2,8 km/h (1 Bft) N 9 5 min 0,000 mm 2,1 UV-I 560 W/m 6,9 C 10,2 C 6,4 km/h (2 Bft) 100,00 %
18.10.2015 13:35 10,2 C 78 % 1016,4 hPa 0,0 l/m 2,8 km/h (1 Bft) O-SO 109 5 min 0,000 mm 2,1 UV-I 556 W/m 6,5 C 10,2 C 6,4 km/h (2 Bft) 99,17 %
18.10.2015 13:40 10,5 C 82 % 1016,3 hPa 0,0 l/m 3,0 km/h (1 Bft) O 80 5 min 0,000 mm 2,0 UV-I 558 W/m 7,6 C 10,5 C 4,8 km/h (1 Bft) 98,10 %
18.10.2015 13:45 10,6 C 79 % 1016,2 hPa 0,0 l/m 3,1 km/h (1 Bft) O-SO 114 5 min 0,000 mm 2,0 UV-I 594 W/m 7,1 C 10,6 C 6,4 km/h (2 Bft) 100,00 %
18.10.2015 13:50 10,7 C 81 % 1016,2 hPa 0,0 l/m 2,9 km/h (1 Bft) N-NO 16 5 min 0,000 mm 1,8 UV-I 634 W/m 7,6 C 10,7 C 6,4 km/h (2 Bft) 100,00 %
18.10.2015 13:55 10,7 C 81 % 1016,0 hPa 0,0 l/m 3,5 km/h (1 Bft) O-NO 58 5 min 0,000 mm 1,6 UV-I 451 W/m 7,6 C 10,7 C 8,0 km/h (2 Bft) 99,15 %
18.10.2015 14:00 10,6 C 80 % 1016,1 hPa 0,0 l/m 2,9 km/h (1 Bft) N-NO 26 0 min 0,229 mm 1,6 UV-I 224 W/m 7,3 C 10,6 C 6,4 km/h (2 Bft) 99,13 %
18.10.2015 14:05 10,1 C 79 % 1016,1 hPa 0,0 l/m 4,9 km/h (1 Bft) O 93 0 min 0,000 mm 1,5 UV-I 215 W/m 6,6 C 10,1 C 12,9 km/h (3 Bft) 100,00 %
18.10.2015 14:10 9,9 C 78 % 1016,3 hPa 0,0 l/m 2,5 km/h (1 Bft) O 94 0 min 0,000 mm 1,3 UV-I 204 W/m 6,2 C 9,9 C 8,0 km/h (2 Bft) 97,56 %
18.10.2015 14:15 9,9 C 80 % 1016,3 hPa 0,0 l/m 2,2 km/h (1 Bft) O-SO 123 0 min 0,000 mm 1,2 UV-I 226 W/m 6,6 C 9,9 C 6,4 km/h (2 Bft) 100,00 %
18.10.2015 14:20 9,9 C 79 % 1016,3 hPa 0,0 l/m 3,8 km/h (1 Bft) O 87 0 min 0,000 mm 1,1 UV-I 205 W/m 6,4 C 9,9 C 6,4 km/h (2 Bft) 99,19 %
18.10.2015 14:25 10,0 C 81 % 1016,2 hPa 0,0 l/m 3,2 km/h (1 Bft) N-NO 26 0 min 0,000 mm 1,0 UV-I 196 W/m 6,9 C 10,0 C 6,4 km/h (2 Bft) 100,00 %
18.10.2015 14:30 9,9 C 81 % 1016,1 hPa 0,0 l/m 4,0 km/h (1 Bft) O 88 0 min 0,000 mm 1,0 UV-I 220 W/m 6,8 C 9,9 C 8,0 km/h (2 Bft) 100,00 %
18.10.2015 14:35 10,1 C 82 % 1015,9 hPa 0,0 l/m 3,3 km/h (1 Bft) N-NO 17 0 min 0,000 mm 1,1 UV-I 241 W/m 7,2 C 10,1 C 6,4 km/h (2 Bft) 99,19 %
18.10.2015 14:40 10,2 C 80 % 1015,9 hPa 0,0 l/m 5,6 km/h (1 Bft) O-NO 69 5 min 0,000 mm 1,2 UV-I 320 W/m 6,9 C 10,2 C 12,9 km/h (3 Bft) 100,00 %
18.10.2015 14:45 10,1 C 82 % 1015,9 hPa 0,0 l/m 4,4 km/h (1 Bft) N-NO 12 0 min 0,000 mm 1,1 UV-I 213 W/m 7,2 C 10,1 C 9,7 km/h (2 Bft) 100,00 %
18.10.2015 14:50 10,0 C 81 % 1015,8 hPa 0,0 l/m 3,2 km/h (1 Bft) NO 35 0 min 0,000 mm 1,0 UV-I 193 W/m 6,9 C 10,0 C 6,4 km/h (2 Bft) 99,29 %
18.10.2015 14:55 10,0 C 80 % 1015,9 hPa 0,0 l/m 3,6 km/h (1 Bft) O-NO 66 0 min 0,000 mm 0,9 UV-I 197 W/m 6,7 C 10,0 C 9,7 km/h (2 Bft) 100,00 %
18.10.2015 15:00 9,8 C 81 % 1015,9 hPa 0,0 l/m 4,2 km/h (1 Bft) NO 35 0 min 0,101 mm 0,8 UV-I 169 W/m 6,7 C 9,8 C 11,3 km/h (2 Bft) 99,15 %
18.10.2015 15:05 9,8 C 80 % 1015,9 hPa 0,0 l/m 3,4 km/h (1 Bft) O 98 0 min 0,000 mm 0,7 UV-I 165 W/m 6,5 C 9,8 C 9,7 km/h (2 Bft) 100,00 %
18.10.2015 15:10 9,8 C 81 % 1015,9 hPa 0,0 l/m 3,3 km/h (1 Bft) O-SO 103 0 min 0,000 mm 0,7 UV-I 154 W/m 6,7 C 9,8 C 9,7 km/h (2 Bft) 100,00 %
18.10.2015 15:15 9,7 C 81 % 1015,8 hPa 0,0 l/m 3,1 km/h (1 Bft) NO 40 0 min 0,000 mm 0,6 UV-I 141 W/m 6,6 C 9,7 C 9,7 km/h (2 Bft) 100,00 %
18.10.2015 15:20 9,8 C 80 % 1015,9 hPa 0,0 l/m 1,9 km/h (1 Bft) N-NO 24 0 min 0,000 mm 0,6 UV-I 149 W/m 6,5 C 9,8 C 4,8 km/h (1 Bft) 100,00 %
18.10.2015 15:25 9,7 C 83 % 1015,9 hPa 0,0 l/m 3,6 km/h (1 Bft) O-NO 59 0 min 0,000 mm 0,5 UV-I 140 W/m 7,0 C 9,7 C 8,0 km/h (2 Bft) 99,08 %
18.10.2015 15:30 9,6 C 82 % 1016,2 hPa 0,0 l/m 3,6 km/h (1 Bft) NO 53 0 min 0,000 mm 0,1 UV-I 126 W/m 6,7 C 9,6 C 8,0 km/h (2 Bft) 100,00 %
18.10.2015 15:35 9,6 C 81 % 1016,1 hPa 0,0 l/m 2,6 km/h (1 Bft) N-NO 31 0 min 0,000 mm 0,1 UV-I 129 W/m 6,5 C 9,6 C 6,4 km/h (2 Bft) 100,00 %
18.10.2015 15:40 9,7 C 83 % 1016,1 hPa 0,0 l/m 2,5 km/h (1 Bft) N 355 0 min 0,000 mm 0,5 UV-I 154 W/m 7,0 C 9,7 C 6,4 km/h (2 Bft) 100,00 %
18.10.2015 15:45 9,8 C 83 % 1016,2 hPa 0,0 l/m 2,7 km/h (1 Bft) N-NO 30 0 min 0,000 mm 0,5 UV-I 175 W/m 7,1 C 9,8 C 6,4 km/h (2 Bft) 98,21 %
18.10.2015 15:50 9,8 C 83 % 1016,2 hPa 0,0 l/m 2,5 km/h (1 Bft) NO 38 0 min 0,000 mm 0,5 UV-I 186 W/m 7,1 C 9,8 C 4,8 km/h (1 Bft) 100,00 %
18.10.2015 15:55 9,9 C 82 % 1016,0 hPa 0,0 l/m 2,4 km/h (1 Bft) N-NO 25 5 min 0,000 mm 0,6 UV-I 194 W/m 7,0 C 9,9 C 6,4 km/h (2 Bft) 98,29 %
18.10.2015 16:00 9,9 C 79 % 1016,0 hPa 0,0 l/m 2,4 km/h (1 Bft) O-SO 103 5 min 0,077 mm 0,6 UV-I 198 W/m 6,4 C 9,9 C 6,4 km/h (2 Bft) 100,00 %
18.10.2015 16:05 9,8 C 81 % 1016,1 hPa 0,0 l/m 1,8 km/h (1 Bft) NO 40 5 min 0,000 mm 0,5 UV-I 181 W/m 6,7 C 9,8 C 6,4 km/h (2 Bft) 99,19 %
18.10.2015 16:10 9,9 C 84 % 1016,0 hPa 0,0 l/m 3,5 km/h (1 Bft) N-NO 26 5 min 0,000 mm 0,5 UV-I 249 W/m 7,3 C 9,9 C 6,4 km/h (2 Bft) 100,00 %
18.10.2015 16:15 9,8 C 81 % 1016,1 hPa 0,0 l/m 2,9 km/h (1 Bft) N-NO 28 5 min 0,000 mm 0,3 UV-I 198 W/m 6,7 C 9,8 C 6,4 km/h (2 Bft) 100,00 %
18.10.2015 16:20 9,7 C 80 % 1016,0 hPa 0,0 l/m 1,9 km/h (1 Bft) O 84 5 min 0,000 mm 0,0 UV-I 179 W/m 6,4 C 9,7 C 3,2 km/h (1 Bft) 100,00 %
18.10.2015 16:25 9,8 C 81 % 1016,0 hPa 0,0 l/m 1,0 km/h (0 Bft) NO 42 5 min 0,000 mm 0,0 UV-I 162 W/m 6,7 C 9,8 C 3,2 km/h (1 Bft) 100,00 %
18.10.2015 16:30 9,7 C 82 % 1016,0 hPa 0,0 l/m 2,9 km/h (1 Bft) O-SO 116 0 min 0,000 mm 0,0 UV-I 117 W/m 6,8 C 9,7 C 6,4 km/h (2 Bft) 99,19 %
18.10.2015 16:35 9,6 C 80 % 1016,1 hPa 0,0 l/m 2,8 km/h (1 Bft) O 92 0 min 0,000 mm 0,0 UV-I 90 W/m 6,3 C 9,6 C 4,8 km/h (1 Bft) 100,00 %
18.10.2015 16:40 9,4 C 81 % 1016,2 hPa 0,0 l/m 1,6 km/h (1 Bft) O 98 0 min 0,000 mm 0,0 UV-I 64 W/m 6,3 C 9,4 C 4,8 km/h (1 Bft) 99,19 %
18.10.2015 16:45 9,4 C 80 % 1016,1 hPa 0,0 l/m 2,6 km/h (1 Bft) O 84 0 min 0,000 mm 0,0 UV-I 48 W/m 6,1 C 9,4 C 4,8 km/h (1 Bft) 99,08 %
18.10.2015 16:50 9,3 C 82 % 1016,1 hPa 0,0 l/m 2,8 km/h (1 Bft) O 93 0 min 0,000 mm 0,0 UV-I 31 W/m 6,4 C 9,3 C 6,4 km/h (2 Bft) 100,00 %
18.10.2015 16:55 9,3 C 81 % 1016,2 hPa 0,0 l/m 3,3 km/h (1 Bft) O-NO 73 0 min 0,000 mm 0,0 UV-I 29 W/m 6,2 C 9,3 C 6,4 km/h (2 Bft) 100,00 %
18.10.2015 17:00 9,2 C 82 % 1016,2 hPa 0,0 l/m 0,8 km/h (0 Bft) O-NO 76 0 min 0,050 mm 0,0 UV-I 38 W/m 6,3 C 9,2 C 3,2 km/h (1 Bft) 100,00 %
18.10.2015 17:05 9,2 C 82 % 1016,2 hPa 0,0 l/m 0,8 km/h (0 Bft) O 82 0 min 0,000 mm 0,0 UV-I 53 W/m 6,3 C 9,2 C 3,2 km/h (1 Bft) 99,19 %
18.10.2015 17:10 9,2 C 82 % 1016,3 hPa 0,0 l/m 0,4 km/h (0 Bft) O-NO 77 0 min 0,000 mm 0,0 UV-I 41 W/m 6,3 C 9,2 C 1,6 km/h (1 Bft) 99,08 %
18.10.2015 17:15 9,2 C 83 % 1016,3 hPa 0,0 l/m 0,5 km/h (0 Bft) N-NO 24 0 min 0,000 mm 0,0 UV-I 24 W/m 6,5 C 9,2 C 3,2 km/h (1 Bft) 98,33 %
18.10.2015 17:20 9,1 C 84 % 1016,4 hPa 0,0 l/m 0,2 km/h (0 Bft) N-NO 24 0 min 0,000 mm 0,0 UV-I 19 W/m 6,5 C 9,1 C 1,6 km/h (1 Bft) 100,00 %
18.10.2015 17:25 9,1 C 83 % 1016,5 hPa 0,0 l/m 0,8 km/h (0 Bft) O-NO 74 0 min 0,000 mm 0,0 UV-I 20 W/m 6,4 C 9,1 C 3,2 km/h (1 Bft) 98,41 %
18.10.2015 17:30 9,1 C 83 % 1016,5 hPa 0,0 l/m 0,0 km/h (0 Bft) O-NO 74 0 min 0,000 mm 0,0 UV-I 14 W/m 6,4 C 9,1 C 1,6 km/h (1 Bft) 99,11 %
18.10.2015 17:35 9,0 C 83 % 1016,6 hPa 0,0 l/m 0,0 km/h (0 Bft) O-NO 74 0 min 0,000 mm 0,0 UV-I 9 W/m 6,3 C 9,0 C 0,0 km/h (0 Bft) 99,17 %
18.10.2015 17:40 9,0 C 84 % 1016,6 hPa 0,0 l/m 0,0 km/h (0 Bft) O-NO 74 0 min 0,000 mm 0,0 UV-I 5 W/m 6,4 C 9,0 C 1,6 km/h (1 Bft) 99,08 %
18.10.2015 17:45 8,9 C 84 % 1016,7 hPa 0,0 l/m 0,0 km/h (0 Bft) O-NO 74 0 min 0,000 mm 0,0 UV-I 0 W/m 6,3 C 8,9 C 1,6 km/h (1 Bft) 99,17 %
18.10.2015 17:50 8,9 C 84 % 1016,7 hPa 0,0 l/m 0,0 km/h (0 Bft) O-NO 74 0 min 0,000 mm 0,0 UV-I 0 W/m 6,3 C 8,9 C 1,6 km/h (1 Bft) 100,00 %
18.10.2015 17:55 8,9 C 84 % 1016,7 hPa 0,0 l/m 0,0 km/h (0 Bft) O-NO 74 0 min 0,000 mm 0,0 UV-I 0 W/m 6,3 C 8,9 C 0,0 km/h (0 Bft) 100,00 %
18.10.2015 18:00 8,8 C 87 % 1016,8 hPa 0,0 l/m 0,2 km/h (0 Bft) O-NO 74 0 min 0,000 mm 0,0 UV-I 0 W/m 6,8 C 8,8 C 1,6 km/h (1 Bft) 100,00 %
18.10.2015 18:05 8,7 C 87 % 1017,0 hPa 0,0 l/m 0,3 km/h (0 Bft) O-NO 74 0 min 0,000 mm 0,0 UV-I 0 W/m 6,7 C 8,7 C 1,6 km/h (1 Bft) 99,15 %
18.10.2015 18:10 8,6 C 88 % 1017,0 hPa 0,0 l/m 0,2 km/h (0 Bft) O-NO 74 0 min 0,000 mm 0,0 UV-I 0 W/m 6,7 C 8,6 C 1,6 km/h (1 Bft) 100,00 %
18.10.2015 18:15 8,6 C 88 % 1017,0 hPa 0,0 l/m 0,1 km/h (0 Bft) O-NO 74 0 min 0,000 mm 0,0 UV-I 0 W/m 6,7 C 8,6 C 1,6 km/h (1 Bft) 99,19 %
18.10.2015 18:20 8,7 C 87 % 1017,0 hPa 0,0 l/m 0,0 km/h (0 Bft) O-NO 74 0 min 0,000 mm 0,0 UV-I 0 W/m 6,7 C 8,7 C 1,6 km/h (1 Bft) 98,17 %
18.10.2015 18:25 8,6 C 88 % 1017,2 hPa 0,0 l/m 0,6 km/h (0 Bft) O-NO 74 0 min 0,000 mm 0,0 UV-I 0 W/m 6,7 C 8,6 C 3,2 km/h (1 Bft) 100,00 %
18.10.2015 18:30 8,6 C 90 % 1017,3 hPa 0,0 l/m 0,1 km/h (0 Bft) O-NO 74 0 min 0,000 mm 0,0 UV-I 0 W/m 7,1 C 8,6 C 1,6 km/h (1 Bft) 97,25 %
18.10.2015 18:35 8,4 C 90 % 1017,4 hPa 0,0 l/m 0,6 km/h (0 Bft) O-NO 72 0 min 0,000 mm 0,0 UV-I 0 W/m 6,9 C 8,4 C 3,2 km/h (1 Bft) 100,00 %
18.10.2015 18:40 8,3 C 91 % 1017,5 hPa 0,0 l/m 1,3 km/h (1 Bft) W-NW 295 0 min 0,000 mm 0,0 UV-I 0 W/m 6,9 C 8,3 C 3,2 km/h (1 Bft) 99,13 %
18.10.2015 18:45 8,2 C 93 % 1017,7 hPa 0,0 l/m 2,8 km/h (1 Bft) W-NW 289 0 min 0,000 mm 0,0 UV-I 0 W/m 7,1 C 8,2 C 4,8 km/h (1 Bft) 98,39 %
18.10.2015 18:50 8,0 C 93 % 1017,7 hPa 0,4 l/m 2,2 km/h (1 Bft) W-SW 254 0 min 0,000 mm 0,0 UV-I 0 W/m 6,9 C 8,0 C 4,8 km/h (1 Bft) 99,12 %
18.10.2015 18:55 7,9 C 93 % 1017,7 hPa 0,4 l/m 1,6 km/h (1 Bft) W-SW 248 0 min 0,000 mm 0,0 UV-I 0 W/m 6,8 C 7,9 C 3,2 km/h (1 Bft) 99,08 %
18.10.2015 19:00 7,8 C 93 % 1017,7 hPa 0,2 l/m 1,8 km/h (1 Bft) W 275 0 min 0,000 mm 0,0 UV-I 0 W/m 6,7 C 7,8 C 6,4 km/h (2 Bft) 99,19 %
18.10.2015 19:05 7,8 C 94 % 1017,7 hPa 0,2 l/m 1,1 km/h (1 Bft) W 273 0 min 0,000 mm 0,0 UV-I 0 W/m 6,9 C 7,8 C 3,2 km/h (1 Bft) 99,10 %
18.10.2015 19:10 7,8 C 95 % 1017,6 hPa 0,0 l/m 0,7 km/h (0 Bft) W 273 0 min 0,000 mm 0,0 UV-I 0 W/m 7,0 C 7,8 C 1,6 km/h (1 Bft) 98,39 %
18.10.2015 19:15 7,8 C 95 % 1017,7 hPa 0,4 l/m 0,9 km/h (0 Bft) W 277 0 min 0,000 mm 0,0 UV-I 0 W/m 7,0 C 7,8 C 3,2 km/h (1 Bft) 99,08 %
18.10.2015 19:20 7,7 C 95 % 1017,8 hPa 0,0 l/m 0,9 km/h (0 Bft) W 277 0 min 0,000 mm 0,0 UV-I 0 W/m 7,0 C 7,7 C 3,2 km/h (1 Bft) 99,21 %
18.10.2015 19:25 7,7 C 95 % 1017,8 hPa 0,2 l/m 0,9 km/h (0 Bft) W 276 0 min 0,000 mm 0,0 UV-I 0 W/m 7,0 C 7,7 C 3,2 km/h (1 Bft) 100,00 %
18.10.2015 19:30 7,7 C 95 % 1017,8 hPa 0,0 l/m 0,9 km/h (0 Bft) W 279 0 min 0,000 mm 0,0 UV-I 0 W/m 7,0 C 7,7 C 3,2 km/h (1 Bft) 100,00 %
18.10.2015 19:35 7,6 C 96 % 1017,9 hPa 0,2 l/m 1,0 km/h (0 Bft) W 279 0 min 0,000 mm 0,0 UV-I 0 W/m 7,0 C 7,6 C 3,2 km/h (1 Bft) 97,04 %
18.10.2015 19:40 7,7 C 96 % 1018,0 hPa 0,0 l/m 1,2 km/h (1 Bft) W-SW 252 0 min 0,000 mm 0,0 UV-I 0 W/m 7,1 C 7,7 C 3,2 km/h (1 Bft) 100,00 %
18.10.2015 19:45 7,7 C 95 % 1018,0 hPa 0,0 l/m 1,6 km/h (1 Bft) W 270 0 min 0,000 mm 0,0 UV-I 0 W/m 7,0 C 7,7 C 4,8 km/h (1 Bft) 100,00 %
18.10.2015 19:50 7,7 C 95 % 1018,0 hPa 0,2 l/m 1,6 km/h (1 Bft) W 270 0 min 0,000 mm 0,0 UV-I 0 W/m 7,0 C 7,7 C 3,2 km/h (1 Bft) 100,00 %
18.10.2015 19:55 7,7 C 95 % 1018,0 hPa 0,0 l/m 1,6 km/h (1 Bft) W 270 0 min 0,000 mm 0,0 UV-I 0 W/m 7,0 C 7,7 C 4,8 km/h (1 Bft) 100,00 %
18.10.2015 20:00 7,7 C 95 % 1018,0 hPa 0,0 l/m 3,2 km/h (1 Bft) W 270 0 min 0,000 mm 0,0 UV-I 0 W/m 7,0 C 7,7 C 6,4 km/h (2 Bft) 100,00 %
18.10.2015 20:05 7,6 C 95 % 1017,9 hPa 0,0 l/m 1,6 km/h (1 Bft) W 270 0 min 0,000 mm 0,0 UV-I 0 W/m 6,9 C 7,6 C 4,8 km/h (1 Bft) 100,00 %
18.10.2015 20:10 7,6 C 95 % 1018,0 hPa 0,0 l/m 1,6 km/h (1 Bft) W 270 0 min 0,000 mm 0,0 UV-I 0 W/m 6,9 C 7,6 C 6,4 km/h (2 Bft) 100,00 %
18.10.2015 20:15 7,6 C 96 % 1018,1 hPa 0,0 l/m 1,6 km/h (1 Bft) W 270 0 min 0,000 mm 0,0 UV-I 0 W/m 7,0 C 7,6 C 4,8 km/h (1 Bft) 100,00 %
18.10.2015 20:20 7,5 C 96 % 1018,0 hPa 0,0 l/m 1,2 km/h (1 Bft) W 261 0 min 0,000 mm 0,0 UV-I 0 W/m 6,9 C 7,5 C 3,2 km/h (1 Bft) 99,57 %
18.10.2015 20:25 7,5 C 96 % 1018,1 hPa 0,0 l/m 1,5 km/h (1 Bft) W 266 0 min 0,000 mm 0,0 UV-I 0 W/m 6,9 C 7,5 C 4,8 km/h (1 Bft) 98,31 %
18.10.2015 20:30 7,5 C 96 % 1018,0 hPa 0,0 l/m 1,0 km/h (0 Bft) W 263 0 min 0,000 mm 0,0 UV-I 0 W/m 6,9 C 7,5 C 3,2 km/h (1 Bft) 100,00 %
18.10.2015 20:35 7,5 C 96 % 1018,0 hPa 0,0 l/m 1,3 km/h (1 Bft) W-SW 241 0 min 0,000 mm 0,0 UV-I 0 W/m 6,9 C 7,5 C 3,2 km/h (1 Bft) 98,29 %
18.10.2015 20:40 7,5 C 95 % 1018,1 hPa 0,0 l/m 1,6 km/h (1 Bft) W-SW 247 0 min 0,000 mm 0,0 UV-I 0 W/m 6,8 C 7,5 C 3,2 km/h (1 Bft) 100,00 %
18.10.2015 20:45 7,4 C 95 % 1018,1 hPa 0,0 l/m 1,3 km/h (1 Bft) W 279 0 min 0,000 mm 0,0 UV-I 0 W/m 6,7 C 7,4 C 3,2 km/h (1 Bft) 100,00 %
18.10.2015 20:50 7,4 C 95 % 1018,1 hPa 0,0 l/m 1,7 km/h (1 Bft) W 275 0 min 0,000 mm 0,0 UV-I 0 W/m 6,7 C 7,4 C 3,2 km/h (1 Bft) 99,17 %
18.10.2015 20:55 7,4 C 95 % 1018,1 hPa 0,0 l/m 1,9 km/h (1 Bft) W 271 0 min 0,000 mm 0,0 UV-I 0 W/m 6,7 C 7,4 C 3,2 km/h (1 Bft) 100,00 %
18.10.2015 21:00 7,3 C 95 % 1018,2 hPa 0,0 l/m 1,7 km/h (1 Bft) W 278 0 min 0,000 mm 0,0 UV-I 0 W/m 6,6 C 7,3 C 3,2 km/h (1 Bft) 99,08 %
18.10.2015 21:05 7,3 C 96 % 1018,0 hPa 0,0 l/m 2,2 km/h (1 Bft) W 273 0 min 0,000 mm 0,0 UV-I 0 W/m 6,7 C 7,3 C 4,8 km/h (1 Bft) 99,17 %
18.10.2015 21:10 7,3 C 96 % 1018,0 hPa 0,0 l/m 2,1 km/h (1 Bft) W-NW 297 0 min 0,000 mm 0,0 UV-I 0 W/m 6,7 C 7,3 C 4,8 km/h (1 Bft) 100,00 %
18.10.2015 21:15 7,3 C 96 % 1018,0 hPa 0,0 l/m 0,7 km/h (0 Bft) W-NW 296 0 min 0,000 mm 0,0 UV-I 0 W/m 6,7 C 7,3 C 3,2 km/h (1 Bft) 99,13 %
18.10.2015 21:20 7,2 C 96 % 1017,9 hPa 0,0 l/m 0,0 km/h (0 Bft) W-NW 296 0 min 0,000 mm 0,0 UV-I 0 W/m 6,6 C 7,2 C 1,6 km/h (1 Bft) 99,17 %
18.10.2015 21:25 7,2 C 96 % 1018,0 hPa 0,0 l/m 0,1 km/h (0 Bft) W-NW 296 0 min 0,000 mm 0,0 UV-I 0 W/m 6,6 C 7,2 C 1,6 km/h (1 Bft) 100,00 %
18.10.2015 21:30 7,2 C 96 % 1018,0 hPa 0,0 l/m 1,0 km/h (0 Bft) W-SW 253 0 min 0,000 mm 0,0 UV-I 0 W/m 6,6 C 7,2 C 3,2 km/h (1 Bft) 100,00 %
18.10.2015 21:36 7,1 C 96 % 1018,1 hPa 0,0 l/m 1,4 km/h (1 Bft) W 271 0 min 0,000 mm 0,0 UV-I 0 W/m 6,5 C 7,1 C 3,2 km/h (1 Bft) 99,33 %
18.10.2015 21:40 7,1 C 96 % 1018,2 hPa 0,0 l/m 0,6 km/h (0 Bft) W 271 0 min 0,000 mm 0,0 UV-I 0 W/m 6,5 C 7,1 C 3,2 km/h (1 Bft) 100,00 %
18.10.2015 21:45 7,0 C 96 % 1018,2 hPa 0,0 l/m 0,5 km/h (0 Bft) W 266 0 min 0,000 mm 0,0 UV-I 0 W/m 6,4 C 7,0 C 3,2 km/h (1 Bft) 100,00 %
18.10.2015 21:50 6,9 C 96 % 1018,1 hPa 0,0 l/m 0,3 km/h (0 Bft) W-SW 256 0 min 0,000 mm 0,0 UV-I 0 W/m 6,3 C 6,9 C 1,6 km/h (1 Bft) 100,00 %
18.10.2015 21:55 6,9 C 96 % 1018,2 hPa 0,0 l/m 0,3 km/h (0 Bft) W-SW 256 0 min 0,000 mm 0,0 UV-I 0 W/m 6,3 C 6,9 C 1,6 km/h (1 Bft) 98,11 %
18.10.2015 22:00 6,9 C 96 % 1018,1 hPa 0,0 l/m 0,1 km/h (0 Bft) W-SW 256 0 min 0,000 mm 0,0 UV-I 0 W/m 6,3 C 6,9 C 1,6 km/h (1 Bft) 99,15 %
18.10.2015 22:06 6,8 C 96 % 1018,1 hPa 0,0 l/m 0,3 km/h (0 Bft) W-SW 256 0 min 0,000 mm 0,0 UV-I 0 W/m 6,2 C 6,8 C 1,6 km/h (1 Bft) 100,00 %
18.10.2015 22:10 6,6 C 96 % 1018,1 hPa 0,0 l/m 1,0 km/h (0 Bft) S-SO 155 0 min 0,000 mm 0,0 UV-I 0 W/m 6,0 C 6,6 C 1,6 km/h (1 Bft) 100,00 %
18.10.2015 22:15 6,4 C 96 % 1018,1 hPa 0,0 l/m 0,1 km/h (0 Bft) S-SO 155 0 min 0,000 mm 0,0 UV-I 0 W/m 5,8 C 6,4 C 1,6 km/h (1 Bft) 100,00 %
18.10.2015 22:20 6,5 C 97 % 1018,2 hPa 0,0 l/m 0,0 km/h (0 Bft) S-SO 155 0 min 0,000 mm 0,0 UV-I 0 W/m 6,1 C 6,5 C 0,0 km/h (0 Bft) 100,00 %
18.10.2015 22:25 6,5 C 97 % 1018,2 hPa 0,0 l/m 0,0 km/h (0 Bft) S-SO 155 0 min 0,000 mm 0,0 UV-I 0 W/m 6,1 C 6,5 C 1,6 km/h (1 Bft) 99,19 %
18.10.2015 22:30 6,6 C 97 % 1018,1 hPa 0,0 l/m 0,0 km/h (0 Bft) S-SO 155 0 min 0,000 mm 0,0 UV-I 0 W/m 6,2 C 6,6 C 1,6 km/h (1 Bft) 99,12 %
18.10.2015 22:35 6,7 C 97 % 1018,2 hPa 0,0 l/m 0,0 km/h (0 Bft) S-SO 155 0 min 0,000 mm 0,0 UV-I 0 W/m 6,3 C 6,7 C 1,6 km/h (1 Bft) 100,00 %
18.10.2015 22:40 6,8 C 97 % 1018,2 hPa 0,0 l/m 0,0 km/h (0 Bft) S-SO 155 0 min 0,000 mm 0,0 UV-I 0 W/m 6,4 C 6,8 C 0,0 km/h (0 Bft) 100,00 %
18.10.2015 22:45 6,8 C 97 % 1018,1 hPa 0,0 l/m 0,0 km/h (0 Bft) S-SO 155 0 min 0,000 mm 0,0 UV-I 0 W/m 6,4 C 6,8 C 0,0 km/h (0 Bft) 98,29 %
18.10.2015 22:50 6,8 C 97 % 1018,0 hPa 0,0 l/m 0,1 km/h (0 Bft) S-SO 155 0 min 0,000 mm 0,0 UV-I 0 W/m 6,4 C 6,8 C 1,6 km/h (1 Bft) 99,13 %
18.10.2015 22:55 6,9 C 96 % 1017,9 hPa 0,0 l/m 1,3 km/h (1 Bft) SO 124 0 min 0,000 mm 0,0 UV-I 0 W/m 6,3 C 6,9 C 3,2 km/h (1 Bft) 100,00 %
18.10.2015 23:00 6,9 C 96 % 1017,9 hPa 0,0 l/m 0,8 km/h (0 Bft) O-SO 123 0 min 0,000 mm 0,0 UV-I 0 W/m 6,3 C 6,9 C 3,2 km/h (1 Bft) 99,21 %
18.10.2015 23:05 6,8 C 96 % 1018,0 hPa 0,0 l/m 0,7 km/h (0 Bft) O-SO 116 0 min 0,000 mm 0,0 UV-I 0 W/m 6,2 C 6,8 C 1,6 km/h (1 Bft) 98,21 %
18.10.2015 23:10 6,8 C 96 % 1018,0 hPa 0,0 l/m 0,0 km/h (0 Bft) O-SO 116 0 min 0,000 mm 0,0 UV-I 0 W/m 6,2 C 6,8 C 0,0 km/h (0 Bft) 100,00 %
18.10.2015 23:15 6,7 C 96 % 1018,0 hPa 0,0 l/m 0,0 km/h (0 Bft) O-SO 116 0 min 0,000 mm 0,0 UV-I 0 W/m 6,1 C 6,7 C 0,0 km/h (0 Bft) 99,13 %
18.10.2015 23:20 6,6 C 97 % 1018,0 hPa 0,0 l/m 0,2 km/h (0 Bft) O-SO 116 0 min 0,000 mm 0,0 UV-I 0 W/m 6,2 C 6,6 C 1,6 km/h (1 Bft) 99,17 %
18.10.2015 23:25 6,6 C 97 % 1018,0 hPa 0,0 l/m 0,0 km/h (0 Bft) O-SO 116 0 min 0,000 mm 0,0 UV-I 0 W/m 6,2 C 6,6 C 0,0 km/h (0 Bft) 99,08 %
18.10.2015 23:30 6,6 C 97 % 1018,1 hPa 0,0 l/m 0,0 km/h (0 Bft) O-SO 116 0 min 0,000 mm 0,0 UV-I 0 W/m 6,2 C 6,6 C 0,0 km/h (0 Bft) 98,39 %
18.10.2015 23:35 6,6 C 97 % 1018,0 hPa 0,0 l/m 0,0 km/h (0 Bft) O-SO 116 0 min 0,000 mm 0,0 UV-I 0 W/m 6,2 C 6,6 C 0,0 km/h (0 Bft) 99,17 %
18.10.2015 23:40 6,7 C 97 % 1018,0 hPa 0,0 l/m 0,0 km/h (0 Bft) O-SO 116 0 min 0,000 mm 0,0 UV-I 0 W/m 6,3 C 6,7 C 0,0 km/h (0 Bft) 99,00 %
18.10.2015 23:45 6,7 C 97 % 1017,9 hPa 0,0 l/m 0,0 km/h (0 Bft) O-SO 116 0 min 0,000 mm 0,0 UV-I 0 W/m 6,3 C 6,7 C 1,6 km/h (1 Bft) 98,39 %
18.10.2015 23:50 6,7 C 97 % 1017,9 hPa 0,0 l/m 0,0 km/h (0 Bft) O-SO 116 0 min 0,000 mm 0,0 UV-I 0 W/m 6,3 C 6,7 C 0,0 km/h (0 Bft) 99,19 %
18.10.2015 23:55 6,7 C 97 % 1017,8 hPa 0,0 l/m 0,0 km/h (0 Bft) O-SO 116 0 min 0,000 mm 0,0 UV-I 0 W/m 6,3 C 6,7 C 0,0 km/h (0 Bft) 100,00 %
_ Min-Zeit 05:25 13:35 14:50 - 00:20 - - - - - - 05:25 05:25 00:30 11:35
Minimum _ 3,8 C 78 % 1015,8 hPa - 0,0 km/h (0 Bft) - - - - - - 3,2 C 3,8 C 0,0 km/h (0 Bft) 91,67 %
_ Max-Zeit 13:55 05:30 21:00 18:50 12:30 - - 11:20 14:00 13:00 13:10 13:50 13:50 14:05 00:00
Maximum _ 10,8 C 97 % 1018,2 hPa 0,4 l/m 5,7 km/h
O (1 Bft)
- - 5 min 0,229 mm 2,1 UV-I 653 W/m 7,6 C 10,7 C 12,9 km/h
O (3 Bft)
100,00 %
Durchschnitt _ 6,7 C 92 % 1017,2 hPa #2,2 l/m 1,1 km/h (1 Bft) O - #2:10 h #0,787 mm 1,1 UV-I 170 W/m 5,5 C 6,7 C 3,1 km/h (1 Bft) 99,39 %